GRUS-3F

导读

GRUS-3F(NORAD编号69894)是日本Axelspace公司研发的GRUS-3系列地球观测微卫星之一,于2026年7月7日搭乘SpaceX猎鹰9号火箭,通过Transporter-17拼车任务从美国范登堡太空军基地发射入轨,目前运行状态正常。 该卫星湿重约150千克,搭载尼康定制光学望远镜,地面分辨率达2.2米,成像幅宽28.3公里,新增海岸蓝波段可观测近岸水下特征。作为AxelGlobe星座的组成节点,它将为农业、林业、沿海环境监测及城市更新等场景提供高频遥感数据支撑,助力实现全球范围每日重访观测能力。

Basic Information
目录编号:
69894
目录名称:
GRUS-3F
国际标识:
2026-156AB
轨道中心:
EARTH
卫星名称:
GRUS-3F
卫星全名:
GRUS-3F
卫星状态:
在轨 (已飞行67 天)
发射日期:
2026-07-07 UTC
国别 :
日本 (JP)
星等 :
--
This satellite is enrolled in the Space Conjunction Data Service (SCDS) and the current flight risk assessment level is: No High Risk
Orbit Information
数据来源 国际轨道数据
星历时间: 2026-09-12T11:48:01+0800
12小时前
查看轨道信息
半长轴: 6971.018km
偏心率: 0.0004291
轨道倾角: 97.747°
近地点辐角 293.254°
升交点赤经 154.489°
平近点角 66.823°
近地点: 589.889km
远地点: 595.873km
周期: 96.539分钟
每日圈数: 14.91621
Detailed Information
使用方式:
暂无
2D Orbit Map
3D Orbit Map
Orbit Altitude Analysis Chart
Orbit Inclination Analysis Chart
Orbit Comprehensive Analysis Chart
View Comprehensive Chart
Conjunction Data List
Event ID Objects TCA Miss Dist (km) Collision Risk Probability Collision Risk Index (CRI) Action
CDM_260913-001906-290306-989422
GRUS-3F (69894)
2026-09-13T
00:19:03+0000
1.993 km
极远距离
2.918151E-6 低风险 0.44
CDM_260913-015506-290206-989426
GRUS-3F (69894)
2026-09-13T
01:55:37+0000
2.307 km
极远距离
2.07296E-6 低风险 0.41
Miss Distance Evolution Trend with All Objects
Collision Probability Evolution Trend with All Objects